EW4867 Weather Reports


time (UTC)temp
F
wind
direction
speed
knots
gust
knots
rain 1hr
in
rain 24hr
in
rain mn
in
humidity
%
barometer
mb
20260504192939 73 187 3.5 8.7 0.00 0.00 0.00 34 1007.6
20260504192440 72 212 3.5 9.6 0.00 0.00 0.00 37 1007.6
20260504191940 72 253 3.5 12.2 0.00 0.00 0.00 36 1007.7
20260504191439 72 210 3.5 12.2 0.00 0.00 0.00 36 1007.8
20260504190941 71 214 3.5 10.4 0.00 0.00 0.00 36 1007.8
20260504190445 71 151 4.3 16.5 0.00 0.00 0.00 37 1007.9
20260504190440 71 202 4.3 16.5 0.00 0.00 0.00 38 1007.9
20260504185437 71 161 4.3 13.9 0.00 0.00 0.00 37 1007.8
20260504184944 70 168 3.5 13.0 0.00 0.00 0.00 40 1008.0
20260504184937 70 210 4.3 9.6 0.00 0.00 0.00 37 1007.9
20260504183943 71 167 3.5 13.9 0.00 0.00 0.00 36 1008.2
20260504183936 70 217 3.5 13.0 0.00 0.00 0.00 36 1008.0
20260504183602 71 187 4.3 13.9 0.00 0.00 0.00 36 1008.1
20260504182435 70 224 5.2 13.9 0.00 0.00 0.00 39 1008.2
20260504181936 70 202 4.3 13.9 0.00 0.00 0.00 38 1008.2
20260504181435 70 218 4.3 11.3 0.00 0.00 0.00 36 1008.2
20260504180937 70 195 4.3 12.2 0.00 0.00 0.00 36 1008.2
20260504180433 69 220 4.3 12.2 0.00 0.00 0.00 37 1008.4
20260504175933 69 282 4.3 8.7 0.00 0.00 0.00 37 1008.5
20260504175434 69 254 5.2 11.3 0.00 0.00 0.00 41 1008.5
20260504174933 69 188 6.1 13.9 0.00 0.00 0.00 37 1008.6
20260504174439 69 278 5.2 13.0 0.00 0.00 0.00 36 1008.6
20260504174433 69 239 6.1 13.9 0.00 0.00 0.00 37 1008.7
20260504173434 69 222 4.3 13.0 0.00 0.00 0.00 36 1008.8
20260504172933 69 207 3.5 11.3 0.00 0.00 0.00 37 1009.0
20260504172434 69 212 3.5 10.4 0.00 0.00 0.00 36 1008.9
20260504171932 69 166 3.5 10.4 0.00 0.00 0.00 36 1009.0
20260504171432 69 198 3.5 10.4 0.00 0.00 0.00 39 1009.1
20260504170931 68 169 3.5 10.4 0.00 0.00 0.00 39 1008.9
20260504170434 68 228 4.3 15.6 0.00 0.00 0.00 36 1008.9
20260504160421 66 191 4.3 12.2 0.00 0.00 0.00 42 1009.7
20260504150917 65 165 4.3 17.4 0.00 0.00 0.00 41 1010.3
20260504150418 64 189 4.3 17.4 0.00 0.00 0.00 44 1010.5
20260504140911 62 203 4.3 11.3 0.00 0.00 0.00 44 1010.9
20260504140410 61 174 5.2 14.8 0.00 0.00 0.00 46 1011.1
20260504130408 55 238 2.6 9.6 0.00 0.00 0.00 55 1011.5
20260504110357 45 186 0.9 7.0 0.00 0.00 0.00 69 1011.9
20260504100353 38 206 0.0 1.7 0.00 0.00 0.00 83 1011.5
20260504081842 38 198 0.0 0.0 0.00 0.00 0.00 82 1011.1
20260504081342 39 198 0.0 0.0 0.00 0.00 0.00 82 1011.1
20260504080838 39 198 0.0 0.0 0.00 0.00 0.00 83 1011.1
20260504080340 39 198 0.0 0.0 0.00 0.00 0.00 82 1011.1
20260504070331 39 198 0.0 0.0 0.00 0.00 0.00 90 1011.0
20260504050317 34 198 0.0 0.0 0.00 0.00 0.00 89 1011.4
20260504045817 34 199 0.0 0.0 0.00 0.00 0.00 89 1011.3
20260504045314 34 198 0.0 0.0 0.00 0.00 0.00 89 1011.4
20260504044815 34 198 0.0 0.0 0.00 0.00 0.00 89 1011.4
20260504044316 34 199 0.0 0.0 0.00 0.00 0.00 89 1011.5
20260504043816 34 198 0.0 0.0 0.00 0.00 0.00 89 1011.4
20260504043316 34 199 0.0 0.0 0.00 0.00 0.00 89 1011.4
20260504042822 34 198 0.0 0.0 0.00 0.00 0.00 89 1011.4
20260504042816 34 199 0.0 0.0 0.00 0.00 0.00 89 1011.4
20260504041815 34 198 0.0 0.0 0.00 0.00 0.00 89 1011.4
20260504041318 34 198 0.0 0.0 0.00 0.00 0.00 88 1011.4
20260504041313 34 198 0.0 0.0 0.00 0.00 0.00 89 1011.4
20260504040314 34 198 0.0 0.0 0.00 0.00 0.00 88 1011.4
20260504035816 35 199 0.0 0.0 0.00 0.00 0.00 88 1011.3
20260504035321 35 198 0.0 0.0 0.00 0.00 0.00 88 1011.2
20260504035315 35 199 0.0 0.0 0.00 0.00 0.00 88 1011.3
20260504034313 35 198 0.0 0.0 0.00 0.00 0.00 87 1011.1
20260504033814 35 198 0.0 0.0 0.00 0.00 0.00 87 1011.2
20260504033809 35 199 0.0 0.0 0.00 0.00 0.00 87 1011.1
20260504032809 35 199 0.0 0.0 0.00 0.00 0.00 87 1011.2
20260504032310 35 198 0.0 0.0 0.00 0.00 0.00 86 1011.1
20260504031810 35 198 0.0 0.0 0.00 0.00 0.00 86 1011.0
20260504031310 35 198 0.0 0.0 0.00 0.00 0.00 85 1011.0
20260504030810 35 198 0.0 0.0 0.00 0.00 0.00 85 1011.0
20260504030311 35 198 0.0 0.0 0.00 0.00 0.00 85 1011.1
20260504025812 36 198 0.0 0.0 0.00 0.00 0.00 85 1011.0
20260504025807 35 199 0.0 0.0 0.00 0.00 0.00 84 1011.1
20260504024808 36 199 0.0 0.0 0.00 0.00 0.00 84 1011.0
20260504024307 36 198 0.0 0.0 0.00 0.00 0.00 84 1011.1
20260504023809 36 198 0.0 0.0 0.00 0.00 0.00 84 1011.0
20260504023308 36 198 0.0 0.0 0.00 0.00 0.00 83 1011.0
20260504022807 36 199 0.0 0.0 0.00 0.00 0.00 83 1010.9
20260504022308 37 199 0.0 0.0 0.00 0.00 0.00 82 1010.9
20260504021807 37 199 0.0 0.0 0.00 0.00 0.00 82 1010.8
20260504021305 37 199 0.0 0.0 0.00 0.00 0.00 81 1010.7
20260504020805 37 198 0.0 0.0 0.00 0.00 0.00 81 1010.8
20260504020304 37 198 0.0 0.0 0.00 0.00 0.00 80 1010.8
20260504015803 38 199 0.0 0.0 0.00 0.00 0.00 79 1010.8
20260504015304 38 199 0.0 0.0 0.00 0.00 0.00 79 1010.7
20260504014803 38 198 0.0 0.0 0.00 0.00 0.00 77 1010.7
20260504014312 38 198 0.0 0.0 0.00 0.00 0.00 77 1010.6
20260504014304 38 198 0.0 0.0 0.00 0.00 0.00 77 1010.6
20260504013309 39 198 0.0 0.0 0.00 0.00 0.00 75 1010.5
20260504013303 39 198 0.0 0.0 0.00 0.00 0.00 76 1010.5
20260504012304 40 198 0.0 0.0 0.00 0.00 0.00 75 1010.4
20260504011808 40 199 0.0 0.0 0.00 0.00 0.00 74 1010.4
20260504011803 40 199 0.0 0.0 0.00 0.00 0.00 75 1010.3
20260504010803 40 198 0.0 0.0 0.00 0.00 0.00 72 1010.3
20260504010301 41 199 0.0 0.0 0.00 0.00 0.00 71 1010.2
20260504005802 41 198 0.0 0.0 0.00 0.00 0.00 70 1010.0
20260504005304 42 199 0.0 0.0 0.00 0.00 0.00 69 1009.9
20260504004802 42 198 0.0 0.0 0.00 0.00 0.00 68 1009.9
20260504004302 43 199 0.0 0.0 0.00 0.00 0.00 66 1009.8
20260504003801 43 198 0.0 0.0 0.00 0.00 0.00 65 1009.8
20260504003306 44 199 0.0 0.0 0.00 0.00 0.00 63 1009.7
20260504003302 44 198 0.0 0.0 0.00 0.00 0.00 64 1009.7
20260504002259 45 198 0.0 0.0 0.00 0.00 0.00 61 1009.6
20260504001801 46 199 0.0 0.0 0.00 0.00 0.00 60 1009.5
20260504001300 46 199 0.0 0.0 0.00 0.00 0.00 59 1009.4
20260504000800 47 199 0.0 0.9 0.00 0.00 0.00 58 1009.3
20260504000300 48 199 0.0 0.9 0.00 0.00 0.00 56 1009.2
20260503235800 48 199 0.0 0.9 0.00 0.00 0.00 54 1009.1
20260503235304 49 199 0.0 0.9 0.00 0.00 0.00 53 1009.1
20260503234806 50 199 0.0 0.9 0.00 0.00 0.00 51 1009.1
20260503234801 49 199 0.0 0.9 0.00 0.00 0.00 52 1009.1
20260503233805 52 199 0.0 0.9 0.00 0.00 0.00 48 1009.0
20260503233759 51 199 0.0 0.9 0.00 0.00 0.00 48 1009.0
20260503232758 52 199 0.0 0.9 0.00 0.00 0.00 45 1008.9
20260503232258 53 199 0.0 1.7 0.00 0.00 0.00 43 1008.9
20260503231757 53 199 0.0 1.7 0.00 0.00 0.00 43 1008.8
20260503231258 53 250 0.0 2.6 0.00 0.00 0.00 41 1008.9
20260503230757 54 255 0.0 2.6 0.00 0.00 0.00 41 1008.8
20260503230258 54 274 0.0 2.6 0.00 0.00 0.00 39 1008.8
20260503225800 54 274 0.9 1.7 0.00 0.00 0.00 41 1008.9
20260503225258 54 276 0.9 6.1 0.00 0.00 0.00 42 1008.8
20260503224801 54 24 0.9 5.2 0.00 0.00 0.00 40 1008.8
20260503224757 54 284 1.7 6.1 0.00 0.00 0.00 39 1008.8
20260503223800 54 262 0.9 6.1 0.00 0.00 0.00 39 1008.7
20260503223756 54 346 0.9 5.2 0.00 0.00 0.00 38 1008.7
20260503222756 55 158 0.9 6.1 0.00 0.00 0.00 40 1008.7
20260503222301 55 231 1.7 6.1 0.00 0.00 0.00 39 1008.8
20260503222255 55 54 1.7 6.1 0.00 0.00 0.00 42 1008.8
20260503221303 55 15 0.9 6.1 0.00 0.00 0.00 40 1008.8
20260503221257 55 31 1.7 4.3 0.00 0.00 0.00 40 1008.8
20260503220257 55 264 1.7 6.1 0.00 0.00 0.00 44 1008.8
20260503215756 55 257 1.7 4.3 0.00 0.00 0.00 40 1008.7
20260503215256 55 22 1.7 7.0 0.00 0.00 0.00 41 1008.8
20260503214756 55 10 2.6 7.8 0.00 0.00 0.00 40 1008.8
20260503214304 55 250 2.6 8.7 0.00 0.00 0.00 43 1008.8
20260503214257 55 22 2.6 8.7 0.00 0.00 0.00 42 1008.8
20260503213256 54 253 2.6 8.7 0.00 0.00 0.00 40 1008.6
20260503212801 53 31 1.7 9.6 0.00 0.00 0.00 43 1008.7
20260503212756 54 236 1.7 7.8 0.00 0.00 0.00 43 1008.7
20260503212418 53 64 1.7 9.6 0.00 0.00 0.00 42 1008.7
20260503211256 53 237 1.7 7.0 0.00 0.00 0.00 44 1008.7
20260503210753 53 220 1.7 8.7 0.00 0.00 0.00 47 1008.7
20260503210253 53 186 2.6 8.7 0.00 0.00 0.00 44 1008.6
20260503205753 53 39 2.6 9.6 0.00 0.00 0.00 45 1008.6
20260503205255 52 326 1.7 9.6 0.00 0.00 0.00 45 1008.6
20260503204759 53 174 2.6 10.4 0.00 0.00 0.00 43 1008.5
20260503204755 52 234 2.6 8.7 0.00 0.00 0.00 44 1008.5
20260503204253 53 76 2.6 10.4 0.00 0.00 0.00 42 1008.4
20260503203258 53 212 2.6 9.6 0.00 0.00 0.00 43 1008.4
20260503203253 53 187 3.5 9.6 0.00 0.00 0.00 43 1008.4
20260503202918 53 199 2.6 9.6 0.00 0.00 0.00 42 1008.3
20260503202357 53 225 2.6 9.6 0.00 0.00 0.00 44 1008.3
20260503201254 53 268 1.7 12.2 0.00 0.00 0.00 46 1008.3
20260503200750 53 345 2.6 12.2 0.00 0.00 0.00 43 1008.4
20260503200251 53 259 2.6 9.6 0.00 0.00 0.00 43 1008.4
20260503195752 53 209 1.7 6.1 0.00 0.01 0.00 43 1008.2
20260503195251 54 70 2.6 12.2 0.00 0.01 0.00 43 1008.4
20260503194752 53 225 2.6 12.2 0.00 0.01 0.00 45 1008.2
20260503194252 53 176 2.6 12.2 0.00 0.01 0.00 44 1008.2
20260503193751 53 203 2.6 12.2 0.00 0.01 0.00 44 1008.2
20260503193253 53 188 2.6 12.2 0.00 0.01 0.00 42 1008.2